Simultaneous Nadir Overpasses (SNOs) Predictions

Prediction of SNOs between AQUA and NPP Satellite Orbit:

Table of predicted SNOs for the next 14.0 days since TLE Epoch: 2/22/2013
Index Date (AQUA) Time (AQUA) Lat,Lon (AQUA) SZA (AQUA ) Date (NPP) Time (NPP) Lat,Lon (NPP) SZA (NPP ) Distance(km) Time Diff (sec)
1 02/22/2013 14:54:36 76.54,-162.82 107.01 02/22/2013 14:53:46 76.53,-162.90 107.08 2.22 50
2 02/22/2013 15:43:44 -77.45, 8.20 74.09 02/22/2013 15:44:11 -77.45, 8.20 74.12 0.04 27
3 02/25/2013 07:10:55 77.11, -44.90 105.35 02/25/2013 07:10:30 77.12, -44.80 105.34 2.74 25
4 02/25/2013 08:00:11 -77.63, 124.84 75.31 02/25/2013 08:01:04 -77.63, 124.80 75.35 0.92 53
5 02/27/2013 22:39:13 -73.55,-106.75 71.64 02/27/2013 22:37:59 -73.64,-107.24 71.51 18.35 74
6 02/27/2013 23:27:27 77.10, 70.94 104.35 02/27/2013 23:27:29 77.09, 70.85 104.37 2.45 2
7 02/28/2013 00:12:54 -80.69, -40.54 89.18 02/28/2013 00:14:07 -79.99, -42.75 89.50 87.52 73
8 03/02/2013 14:54:41 -76.73, 17.80 76.22 03/02/2013 14:53:52 -76.73, 17.81 76.18 0.34 49
9 03/02/2013 15:43:50 77.50,-171.62 102.84 03/02/2013 15:44:18 77.50,-171.61 102.82 0.35 28
10 03/05/2013 07:11:08 -76.93, 134.42 77.50 03/05/2013 07:10:46 -76.93, 134.37 77.47 1.30 22
11 03/05/2013 08:00:18 77.65, -55.11 101.62 03/05/2013 08:01:13 77.65, -55.15 101.58 1.06 55
12 03/07/2013 22:38:25 76.24, 80.28 102.28 03/07/2013 22:37:13 76.23, 80.18 102.37 2.95 72
13 03/07/2013 23:27:32 -77.22,-108.63
